Location: ?????
(32.7281°N, 34.9563°E)
Time: 08:15:02
(UTC+00:00)

FENGYUN 1C DEB - Visible Passes

Search period start: 09 May 2021 00:00
Search period end: 19 May 2021 00:00
Orbit: 738 x 924 km, 99.0° (Epoch: 08 May)

Date Brightness Start Highest point End Pass type
(mag) Time Alt. Az. Time Alt. Az. Time Alt. Az.
09 May ? 17:43:19 10° SSW 17:48:37 35° W 17:53:54 10° NNW visible
10 May ? 17:25:28 10° S 17:31:09 51° W 17:36:49 10° NNW visible
11 May ? 17:07:52 10° S 17:13:45 74° WSW 17:19:33 10° NNW visible
12 May ? 16:50:30 10° SSE 16:56:22 78° ENE 17:02:10 10° N visible
12 May ? 18:35:06 10° WSW 18:37:02 12° W 18:38:58 10° WNW visible
13 May ? 18:15:37 10° SW 18:19:28 18° W 18:23:17 10° NW visible
14 May ? 17:57:08 10° SSW 18:01:56 26° W 18:06:43 10° NW visible
15 May ? 17:39:04 10° SSW 17:44:28 38° W 17:49:48 10° NNW visible
16 May ? 17:21:17 10° S 17:27:01 56° WSW 17:32:39 10° NNW visible
17 May ? 17:03:45 10° S 17:09:37 81° WSW 17:15:21 10° NNW visible
18 May ? 18:30:18 10° WSW 18:32:49 13° W 18:35:20 10° WNW visible
